TimeEDT,TemperatureF,Dew PointF,Humidity,Sea Level PressureIn,VisibilityMPH,Wind Direction,Wind SpeedMPH,Gust SpeedMPH,PrecipitationIn,Events,Conditions,WindDirDegrees,DateUTC
12:15 AM,42.8,42.8,100,30.00,10.0,Calm,Calm,-,N/A,,Unknown,0,2012-10-07 04:15:00
12:35 AM,42.8,42.8,100,30.01,10.0,South,3.5,-,N/A,,Unknown,170,2012-10-07 04:35:00
12:55 AM,44.6,44.6,100,30.01,10.0,Calm,Calm,-,N/A,,Unknown,0,2012-10-07 04:55:00
1:15 AM,42.8,42.8,100,30.02,10.0,Calm,Calm,-,N/A,,Clear,0,2012-10-07 05:15:00
1:35 AM,42.8,42.8,100,30.03,10.0,SSE,3.5,-,N/A,,Unknown,150,2012-10-07 05:35:00
1:55 AM,42.8,42.8,100,30.03,10.0,Calm,Calm,-,N/A,,Unknown,0,2012-10-07 05:55:00
2:15 AM,41.0,41.0,100,30.03,10.0,Calm,Calm,-,N/A,,Clear,0,2012-10-07 06:15:00
2:35 AM,41.0,41.0,100,30.03,10.0,Calm,Calm,-,N/A,,Clear,0,2012-10-07 06:35:00
2:55 AM,39.2,39.2,100,30.03,10.0,Calm,Calm,-,N/A,,Clear,0,2012-10-07 06:55:00
3:15 AM,39.2,39.2,100,30.03,10.0,Calm,Calm,-,N/A,,Clear,0,2012-10-07 07:15:00
3:35 AM,39.2,39.2,100,30.03,10.0,Calm,Calm,-,N/A,,Clear,0,2012-10-07 07:35:00
3:55 AM,39.2,39.2,100,30.03,10.0,Calm,Calm,-,N/A,,Clear,0,2012-10-07 07:55:00
4:15 AM,39.2,39.2,100,30.03,10.0,Calm,Calm,-,N/A,,Clear,0,2012-10-07 08:15:00
4:35 AM,39.2,39.2,100,30.03,10.0,Calm,Calm,-,N/A,,Clear,0,2012-10-07 08:35:00
4:55 AM,37.4,37.4,100,30.05,10.0,Calm,Calm,-,N/A,,Clear,0,2012-10-07 08:55:00
5:15 AM,37.4,37.4,100,30.05,10.0,Calm,Calm,-,N/A,,Clear,0,2012-10-07 09:15:00
5:35 AM,37.4,37.4,100,30.07,1.2,Calm,Calm,-,N/A,,Mist,0,2012-10-07 09:35:00
5:55 AM,37.4,37.4,100,30.08,7.0,Calm,Calm,-,N/A,,Clear,0,2012-10-07 09:55:00
6:15 AM,37.4,37.4,100,30.08,7.0,Calm,Calm,-,N/A,,Clear,0,2012-10-07 10:15:00
6:35 AM,39.2,39.2,100,30.08,10.0,Calm,Calm,-,N/A,,Clear,0,2012-10-07 10:35:00
6:45 AM,41.0,39.2,93,30.08,10.0,Calm,Calm,-,N/A,,Mostly Cloudy,0,2012-10-07 10:45:00
7:45 AM,44.6,42.8,93,30.09,10.0,Calm,Calm,-,N/A,,Overcast,0,2012-10-07 11:45:00
8:45 AM,46.4,44.6,93,30.10,10.0,Calm,Calm,-,N/A,,Overcast,0,2012-10-07 12:45:00
9:45 AM,48.2,44.6,87,30.12,10.0,Calm,Calm,-,N/A,,Overcast,0,2012-10-07 13:45:00
10:45 AM,48.2,44.6,87,30.12,10.0,Calm,Calm,-,N/A,,Overcast,0,2012-10-07 14:45:00
11:45 AM,51.8,42.8,71,30.11,6.0,East,3.5,-,N/A,,Overcast,100,2012-10-07 15:45:00
12:45 PM,50.0,42.8,76,30.10,8.0,South,3.5,-,N/A,Rain,Light Rain,170,2012-10-07 16:45:00
1:45 PM,50.0,44.6,82,30.08,8.0,SW,6.9,-,N/A,,Overcast,220,2012-10-07 17:45:00
2:45 PM,50.0,42.8,76,30.07,10.0,West,6.9,-,N/A,,Overcast,270,2012-10-07 18:45:00
3:45 PM,50.0,41.0,71,30.05,10.0,Calm,Calm,-,N/A,,Overcast,0,2012-10-07 19:45:00
4:45 PM,51.8,42.8,71,30.03,7.0,Calm,Calm,-,N/A,,Overcast,0,2012-10-07 20:45:00
6:45 PM,50.0,44.6,82,30.06,10.0,West,4.6,-,N/A,,Overcast,260,2012-10-07 22:45:00
7:45 PM,50.0,46.4,87,30.08,10.0,West,4.6,-,N/A,,Overcast,270,2012-10-07 23:45:00
8:44 PM,48.2,46.4,93,30.11,10.0,WNW,4.6,-,N/A,Rain,Light Rain,300,2012-10-08 00:44:00
9:45 PM,48.2,46.4,93,30.11,8.0,Calm,Calm,-,N/A,Rain,Light Rain,0,2012-10-08 01:45:00
10:55 PM,46.4,46.4,100,30.12,10.0,Calm,Calm,-,N/A,,Overcast,0,2012-10-08 02:55:00
11:15 PM,46.4,44.6,93,30.11,10.0,Calm,Calm,-,N/A,,Mostly Cloudy,0,2012-10-08 03:15:00
11:35 PM,44.6,44.6,100,30.11,10.0,Calm,Calm,-,N/A,,Scattered Clouds,0,2012-10-08 03:35:00
11:55 PM,42.8,42.8,100,30.12,4.0,Calm,Calm,-,N/A,,Clear,0,2012-10-08 03:55:00